TimeCDT,TemperatureF,Dew PointF,Humidity,Sea Level PressureIn,VisibilityMPH,Wind Direction,Wind SpeedMPH,Gust SpeedMPH,PrecipitationIn,Events,Conditions,WindDirDegrees,DateUTC
12:53 AM,77.0,73.0,88,30.06,10.0,Calm,Calm,-,N/A,,Clear,0,2013-09-06 05:53:00
1:53 AM,77.0,73.0,88,30.05,10.0,Calm,Calm,-,N/A,,Clear,0,2013-09-06 06:53:00
2:53 AM,75.9,73.0,91,30.04,10.0,NNW,3.5,-,N/A,,Clear,330,2013-09-06 07:53:00
3:53 AM,77.0,73.0,88,30.04,10.0,Calm,Calm,-,N/A,,Clear,0,2013-09-06 08:53:00
4:53 AM,75.9,73.0,91,30.05,10.0,Calm,Calm,-,N/A,,Clear,0,2013-09-06 09:53:00
5:53 AM,75.0,72.0,90,30.06,10.0,Calm,Calm,-,N/A,,Clear,0,2013-09-06 10:53:00
6:53 AM,75.9,73.0,91,30.07,10.0,Calm,Calm,-,N/A,,Clear,0,2013-09-06 11:53:00
7:53 AM,79.0,73.9,84,30.09,10.0,North,4.6,-,N/A,,Clear,10,2013-09-06 12:53:00
8:53 AM,82.9,73.0,72,30.09,10.0,NNE,5.8,-,N/A,,Clear,30,2013-09-06 13:53:00
9:53 AM,87.1,73.9,65,30.10,10.0,NNE,6.9,-,N/A,,Clear,20,2013-09-06 14:53:00
10:53 AM,89.1,73.9,61,30.10,10.0,East,5.8,-,N/A,,Mostly Cloudy,80,2013-09-06 15:53:00
11:53 AM,90.0,72.0,55,30.09,10.0,Calm,Calm,-,N/A,,Clear,0,2013-09-06 16:53:00
12:53 PM,90.0,71.1,54,30.07,10.0,SE,8.1,-,N/A,,Partly Cloudy,140,2013-09-06 17:53:00
1:53 PM,90.0,73.0,57,30.05,10.0,SSE,10.4,-,N/A,,Unknown,160,2013-09-06 18:53:00
2:53 PM,88.0,72.0,59,30.03,10.0,SSE,6.9,-,0.00,,Scattered Clouds,160,2013-09-06 19:53:00
3:53 PM,86.0,73.9,67,30.01,8.0,South,4.6,-,N/A,,Clear,180,2013-09-06 20:53:00
4:53 PM,86.0,73.9,67,30.00,10.0,Calm,Calm,-,N/A,,Clear,0,2013-09-06 21:53:00
5:53 PM,87.1,75.0,67,30.00,9.0,Calm,Calm,-,N/A,,Clear,0,2013-09-06 22:53:00
6:53 PM,82.0,77.0,85,29.99,7.0,Calm,Calm,-,N/A,,Scattered Clouds,0,2013-09-06 23:53:00
7:53 PM,81.0,75.0,82,30.00,7.0,Calm,Calm,-,N/A,,Clear,0,2013-09-07 00:53:00
8:53 PM,80.1,75.0,85,30.01,6.0,Calm,Calm,-,N/A,,Haze,0,2013-09-07 01:53:00
9:53 PM,79.0,75.0,88,30.02,10.0,Calm,Calm,-,N/A,,Clear,0,2013-09-07 02:53:00
10:53 PM,78.1,73.9,87,30.02,5.0,Calm,Calm,-,N/A,,Clear,0,2013-09-07 03:53:00
11:53 PM,78.1,73.9,87,30.01,6.0,Calm,Calm,-,N/A,,Clear,0,2013-09-07 04:53:00